FW8782 Weather Reports


Display with metric or nautical units.
time (UTC)temp
F
wind
direction
speed
MPH
gust
MPH
rain 1hr
in
rain 24hr
in
rain mn
in
humidity
%
barometer
mb
20260507004016 58 0 1.0 7.0 0.00 0.00 0.00 72 1020.7
20260507003515 58 311 1.0 8.0 0.00 0.00 0.00 73 1020.7
20260507003033 59 210 2.0 8.0 0.00 0.00 0.00 72 1020.6
20260507002516 59 351 1.0 5.0 0.00 0.00 0.00 72 1020.7
20260507002015 58 234 1.0 7.0 0.00 0.00 0.00 73 1020.7
20260507001534 58 40 1.0 8.0 0.00 0.00 0.00 73 1020.7
20260507001016 59 225 2.0 8.0 0.00 0.00 0.00 74 1020.7
20260507000516 59 197 0.0 5.0 0.00 0.00 0.00 74 1020.8
20260507000032 59 266 1.0 5.0 0.00 0.00 0.00 74 1020.8
20260506235515 58 185 1.0 5.0 0.00 0.00 0.00 74 1020.7
20260506235015 58 206 1.0 5.0 0.00 0.00 0.00 76 1020.8
20260506234537 57 242 1.0 5.0 0.00 0.00 0.00 75 1021.0
20260506234016 57 350 1.0 4.0 0.00 0.00 0.00 75 1020.9
20260506233516 57 174 2.0 4.0 0.00 0.00 0.00 75 1021.0
20260506233032 57 202 0.0 4.0 0.00 0.00 0.00 76 1021.0
20260506232515 57 202 1.0 9.0 0.00 0.00 0.00 76 1020.9
20260506232015 57 227 2.0 9.0 0.00 0.00 0.00 76 1020.9
20260506231546 57 229 1.0 10.0 0.00 0.00 0.00 75 1020.9
20260506231015 57 198 2.0 10.0 0.00 0.00 0.00 75 1020.9
20260506230516 58 205 1.0 7.0 0.00 0.00 0.00 75 1020.9
20260506230037 58 219 1.0 7.0 0.00 0.00 0.00 75 1020.9
20260506225517 58 208 1.0 7.0 0.00 0.00 0.00 75 1020.9
20260506225013 58 103 1.0 8.0 0.00 0.00 0.00 75 1020.9
20260506224535 58 196 1.0 8.0 0.00 0.00 0.00 75 1020.9
20260506224016 58 348 1.0 6.0 0.00 0.00 0.00 76 1020.9
20260506223515 57 317 1.0 7.0 0.00 0.00 0.00 75 1020.9
20260506223045 57 230 2.0 10.0 0.00 0.00 0.00 75 1021.0
20260506222516 57 221 2.0 10.0 0.00 0.00 0.00 75 1021.0
20260506222016 57 153 2.0 4.0 0.00 0.00 0.00 75 1021.0
20260506221532 57 209 1.0 5.0 0.00 0.00 0.00 75 1021.1
20260506221019 57 237 1.0 5.0 0.00 0.00 0.00 75 1021.3
20260506220518 57 190 1.0 10.0 0.00 0.00 0.00 75 1021.3
20260506220036 57 186 1.0 10.0 0.00 0.00 0.00 76 1021.3
20260506215518 57 179 1.0 11.0 0.00 0.00 0.00 76 1021.1
20260506215014 57 112 4.0 11.0 0.00 0.00 0.00 75 1021.1
20260506214534 57 174 2.0 9.0 0.00 0.00 0.00 75 1021.1
20260506214014 57 173 3.0 10.0 0.00 0.00 0.00 75 1021.2
20260506213516 57 199 1.0 10.0 0.00 0.00 0.00 75 1021.1
20260506213038 57 25 2.0 9.0 0.00 0.00 0.00 75 1021.2
20260506212516 57 217 1.0 9.0 0.00 0.00 0.00 75 1021.3
20260506212015 57 76 1.0 9.0 0.00 0.00 0.00 75 1021.3
20260506211539 57 332 1.0 8.0 0.00 0.00 0.00 75 1021.3
20260506211015 57 237 2.0 8.0 0.00 0.00 0.00 76 1021.1
20260506210515 57 215 2.0 8.0 0.00 0.00 0.00 75 1021.2
20260506210036 57 236 2.0 8.0 0.00 0.00 0.00 75 1021.2
20260506205514 57 16 2.0 8.0 0.00 0.00 0.00 75 1021.1
20260506205014 57 198 1.0 10.0 0.00 0.00 0.00 76 1021.2
20260506204534 57 193 3.0 10.0 0.00 0.00 0.00 75 1021.4
20260506204014 57 257 1.0 8.0 0.00 0.00 0.00 75 1021.1
20260506203514 57 265 1.0 8.0 0.00 0.00 0.00 75 1021.1
20260506203034 57 244 1.0 5.0 0.00 0.00 0.00 76 1021.1
20260506202514 56 287 1.0 8.0 0.00 0.00 0.00 77 1021.1
20260506202016 56 222 2.0 8.0 0.00 0.00 0.00 77 1021.0
20260506201538 56 155 1.0 4.0 0.00 0.00 0.00 77 1021.0
20260506201012 56 167 1.0 4.0 0.00 0.00 0.00 76 1021.0
20260506200512 56 232 0.0 5.0 0.00 0.00 0.00 77 1021.1
20260506200033 56 182 2.0 7.0 0.00 0.00 0.00 77 1021.1
20260506195514 56 278 1.0 7.0 0.00 0.00 0.00 76 1020.9
20260506195016 56 203 2.0 7.0 0.00 0.00 0.00 76 1021.0
20260506194531 56 244 0.0 6.0 0.00 0.00 0.00 76 1020.9
20260506194010 56 333 2.0 6.0 0.00 0.00 0.00 76 1020.8
20260506193514 56 0 0.0 6.0 0.00 0.00 0.00 77 1020.9
20260506193034 56 325 2.0 6.0 0.00 0.00 0.00 77 1020.9
20260506192511 56 235 2.0 5.0 0.00 0.00 0.00 77 1020.9
20260506192013 56 240 0.0 5.0 0.00 0.00 0.00 77 1021.0
20260506191530 55 210 1.0 5.0 0.00 0.00 0.00 78 1020.9
20260506191016 55 317 0.0 8.0 0.00 0.00 0.00 77 1020.8
20260506190516 55 235 1.0 9.0 0.00 0.00 0.00 77 1020.7
20260506190031 56 240 2.0 9.0 0.00 0.00 0.00 77 1020.8
20260506185511 56 238 1.0 4.0 0.00 0.00 0.00 77 1020.9
20260506185018 56 242 0.0 2.0 0.00 0.00 0.00 77 1020.9
20260506184534 55 164 0.0 7.0 0.00 0.00 0.00 78 1020.9
20260506184014 55 0 2.0 7.0 0.00 0.00 0.00 76 1020.7
20260506183514 55 199 1.0 6.0 0.00 0.00 0.00 76 1020.8
20260506183040 55 238 1.0 3.0 0.00 0.00 0.00 77 1020.9
20260506182513 56 236 0.0 4.0 0.00 0.00 0.00 77 1020.8
20260506182014 56 184 1.0 7.0 0.00 0.00 0.00 76 1020.9
20260506181532 56 212 1.0 8.0 0.00 0.00 0.00 76 1020.8
20260506181011 56 35 2.0 8.0 0.00 0.00 0.00 76 1020.7
20260506180511 56 264 1.0 9.0 0.00 0.00 0.00 76 1020.5
20260506180035 56 254 2.0 9.0 0.00 0.00 0.00 76 1020.5
20260506175517 56 188 2.0 7.0 0.00 0.00 0.00 76 1020.4
20260506175013 56 225 1.0 7.0 0.00 0.00 0.00 76 1020.5
20260506174531 56 217 2.0 6.0 0.00 0.00 0.00 76 1020.6
20260506174011 56 286 2.0 9.0 0.00 0.00 0.00 76 1020.6
20260506173514 56 202 2.0 9.0 0.00 0.00 0.00 75 1020.4
20260506173031 56 234 3.0 9.0 0.00 0.00 0.00 75 1020.4
20260506172511 56 175 0.0 3.0 0.00 0.00 0.00 77 1020.3
20260506172015 56 32 1.0 3.0 0.00 0.00 0.00 77 1020.4
20260506171538 56 182 0.0 5.0 0.00 0.00 0.00 76 1020.4
20260506171017 55 234 2.0 5.0 0.00 0.00 0.00 76 1020.5
20260506170510 55 171 1.0 4.0 0.00 0.00 0.00 76 1020.4
20260506170034 55 217 1.0 4.0 0.00 0.00 0.00 77 1020.5
20260506165516 55 221 1.0 4.0 0.00 0.00 0.00 77 1020.6
20260506165016 55 330 1.0 7.0 0.00 0.00 0.00 77 1020.6
20260506164532 55 0 1.0 7.0 0.00 0.00 0.00 77 1020.4
20260506164021 55 327 2.0 7.0 0.00 0.00 0.00 77 1020.5
20260506163514 55 101 1.0 4.0 0.00 0.00 0.00 78 1020.5
20260506163034 55 183 1.0 5.0 0.00 0.00 0.00 78 1020.5
20260506162518 55 281 0.0 5.0 0.00 0.00 0.00 78 1020.3
20260506162021 55 0 0.0 4.0 0.00 0.00 0.00 78 1020.3
20260506161534 55 198 0.0 2.0 0.00 0.00 0.00 78 1020.3
20260506161018 55 219 1.0 4.0 0.00 0.00 0.00 79 1020.2
20260506160517 54 248 0.0 4.0 0.00 0.00 0.00 78 1020.1
20260506160034 54 154 1.0 2.0 0.00 0.00 0.00 78 1020.1
20260506155517 54 0 0.0 3.0 0.00 0.00 0.00 78 1020.0
20260506155014 54 0 0.0 4.0 0.00 0.00 0.00 78 1020.1
20260506154534 54 216 2.0 4.0 0.00 0.00 0.00 79 1020.0
20260506154016 54 202 0.0 4.0 0.00 0.00 0.00 79 1019.9
20260506153513 54 217 2.0 4.0 0.00 0.00 0.00 79 1020.1
20260506153034 54 210 0.0 3.0 0.00 0.00 0.00 80 1019.9
20260506152516 54 0 0.0 2.0 0.00 0.00 0.00 79 1020.0
20260506152015 53 239 0.0 3.0 0.00 0.00 0.00 79 1020.1
20260506151534 53 279 0.0 3.0 0.00 0.00 0.00 80 1020.0
20260506151016 53 255 0.0 6.0 0.00 0.00 0.00 80 1020.0
20260506150517 53 0 1.0 6.0 0.00 0.00 0.00 80 1020.1
20260506150034 53 0 1.0 3.0 0.00 0.00 0.00 80 1020.0
20260506145516 53 0 0.0 3.0 0.00 0.00 0.00 81 1020.2
20260506145016 52 237 1.0 3.0 0.00 0.00 0.00 81 1020.1
20260506144538 52 218 0.0 2.0 0.00 0.00 0.00 81 1019.8
20260506144015 52 0 0.0 2.0 0.00 0.00 0.00 81 1019.9
20260506143517 52 0 0.0 2.0 0.00 0.00 0.00 82 1019.8
20260506143034 52 0 0.0 2.0 0.00 0.00 0.00 82 1019.8
20260506142518 52 235 0.0 6.0 0.00 0.00 0.00 82 1019.8
20260506142019 52 212 0.0 6.0 0.00 0.00 0.00 82 1019.8
20260506141534 52 322 1.0 4.0 0.00 0.00 0.00 82 1019.6
20260506141016 52 240 0.0 4.0 0.00 0.00 0.00 82 1019.3
20260506140516 52 240 1.0 4.0 0.00 0.00 0.00 82 1019.6
20260506140030 52 273 1.0 4.0 0.00 0.00 0.00 82 1019.7
20260506135515 52 281 1.0 4.0 0.00 0.00 0.00 82 1019.7
20260506135015 52 0 1.0 4.0 0.00 0.00 0.00 83 1019.5
20260506134538 52 216 0.0 3.0 0.00 0.00 0.00 83 1019.4
20260506134011 52 217 1.0 3.0 0.00 0.00 0.00 83 1019.5
20260506133514 52 0 0.0 4.0 0.00 0.00 0.00 83 1019.4
20260506133029 51 217 0.0 4.0 0.00 0.00 0.00 83 1019.5
20260506132514 51 223 0.0 2.0 0.00 0.00 0.00 83 1019.4
20260506132020 52 0 0.0 2.0 0.00 0.00 0.00 83 1019.5
20260506131534 51 0 0.0 3.0 0.00 0.00 0.00 83 1019.5
20260506131011 51 162 1.0 2.0 0.00 0.00 0.00 83 1019.3
20260506130517 51 0 0.0 3.0 0.00 0.00 0.00 83 1019.4
20260506130030 51 277 0.0 4.0 0.00 0.00 0.00 83 1019.3
20260506125515 51 283 1.0 5.0 0.00 0.00 0.00 83 1019.2
20260506125015 51 0 1.0 5.0 0.00 0.00 0.00 83 1019.0
20260506124532 51 0 0.0 5.0 0.00 0.00 0.00 83 1019.0
20260506124011 51 244 0.0 3.0 0.00 0.00 0.00 83 1019.1
20260506123514 52 217 1.0 3.0 0.00 0.00 0.00 83 1019.1
20260506123034 52 281 0.0 4.0 0.00 0.00 0.00 83 1019.0
20260506122514 52 221 0.0 4.0 0.00 0.00 0.00 83 1019.1
20260506122017 52 235 0.0 4.0 0.00 0.00 0.00 83 1018.9
20260506121532 52 0 1.0 3.0 0.00 0.00 0.00 83 1018.9
20260506121014 52 232 0.0 7.0 0.00 0.00 0.00 83 1018.9
20260506120517 52 258 1.0 7.0 0.00 0.00 0.00 83 1018.9
20260506120040 52 0 0.0 5.0 0.00 0.00 0.00 83 1018.7
20260506115511 52 209 0.0 2.0 0.00 0.00 0.00 83 1018.8
20260506115012 52 262 0.0 2.0 0.00 0.00 0.00 83 1018.7
20260506114533 52 0 1.0 3.0 0.00 0.00 0.00 83 1018.6
20260506114013 52 0 0.0 3.0 0.00 0.00 0.00 83 1018.7
20260506113516 52 209 0.0 3.0 0.00 0.00 0.00 83 1018.5
20260506113034 52 242 1.0 7.0 0.00 0.00 0.00 83 1018.5
20260506112514 52 0 1.0 7.0 0.00 0.00 0.00 83 1018.4
20260506112018 52 216 0.0 5.0 0.00 0.00 0.00 83 1018.5
20260506111531 52 217 1.0 5.0 0.00 0.00 0.00 83 1018.4
20260506111018 52 227 2.0 5.0 0.00 0.00 0.00 83 1018.5
20260506110514 52 223 0.0 4.0 0.00 0.00 0.00 83 1018.5
20260506110032 52 224 0.0 4.0 0.00 0.00 0.00 83 1018.3
20260506105514 52 231 0.0 4.0 0.00 0.00 0.00 83 1018.3
20260506105014 52 235 1.0 4.0 0.00 0.00 0.00 83 1018.3
20260506104533 52 224 0.0 2.0 0.00 0.00 0.00 84 1018.3
20260506104014 52 0 0.0 4.0 0.00 0.00 0.00 84 1018.4
20260506103516 52 224 1.0 4.0 0.00 0.00 0.00 84 1018.3
20260506103035 52 0 0.0 2.0 0.00 0.00 0.00 84 1018.3
20260506102511 52 0 0.0 3.0 0.00 0.00 0.00 84 1018.3
20260506102014 52 248 1.0 3.0 0.00 0.00 0.00 84 1018.3
20260506101532 52 0 0.0 2.0 0.00 0.00 0.00 84 1018.2
20260506101013 52 0 1.0 2.0 0.00 0.00 0.00 84 1018.2
20260506100514 52 0 0.0 2.0 0.00 0.00 0.00 84 1018.2
20260506100032 52 0 0.0 2.0 0.00 0.00 0.00 84 1018.1
20260506095514 52 238 0.0 2.0 0.00 0.00 0.00 84 1018.0
20260506095013 52 248 0.0 2.0 0.00 0.00 0.00 84 1018.1
20260506094533 52 234 0.0 2.0 0.00 0.00 0.00 84 1018.0
20260506094010 52 0 0.0 2.0 0.00 0.00 0.00 85 1018.0
20260506093518 51 0 0.0 2.0 0.00 0.00 0.00 85 1018.0
20260506093030 51 0 0.0 3.0 0.00 0.00 0.00 85 1018.0
20260506092514 51 234 0.0 3.0 0.00 0.00 0.00 85 1018.0
20260506092017 51 231 0.0 2.0 0.00 0.00 0.00 85 1018.0
20260506091534 51 0 0.0 4.0 0.00 0.00 0.00 85 1018.0
20260506091016 51 231 0.0 4.0 0.00 0.00 0.00 85 1017.9
20260506090513 51 209 0.0 4.0 0.00 0.00 0.00 86 1018.0
20260506090044 51 0 0.0 0.0 0.00 0.00 0.00 86 1018.0
20260506085515 51 0 0.0 0.0 0.00 0.00 0.00 86 1018.0
20260506085014 51 0 0.0 0.0 0.00 0.00 0.00 86 1018.0
20260506084534 51 0 0.0 0.0 0.00 0.00 0.00 87 1017.9
20260506084015 51 0 0.0 0.0 0.00 0.00 0.00 87 1017.9
20260506083516 51 0 0.0 0.0 0.00 0.00 0.00 88 1017.8
20260506083032 51 0 0.0 2.0 0.00 0.00 0.00 88 1017.7
20260506082512 51 0 0.0 2.0 0.00 0.00 0.00 88 1017.6
20260506082013 51 0 0.0 2.0 0.00 0.00 0.00 88 1017.6
20260506081537 51 0 0.0 0.0 0.00 0.00 0.00 88 1017.6
20260506081012 51 0 0.0 0.0 0.00 0.00 0.00 88 1017.5
20260506080514 50 0 0.0 0.0 0.00 0.00 0.00 88 1017.4
20260506073513 50 0 0.0 0.0 0.00 0.00 0.00 87 1017.1
20260506073032 50 0 0.0 0.0 0.00 0.00 0.00 87 1017.1
20260506072514 50 0 0.0 0.0 0.00 0.00 0.00 87 1017.1
20260506072013 50 0 0.0 0.0 0.00 0.00 0.00 86 1017.0
20260506071531 50 0 0.0 0.0 0.00 0.00 0.00 86 1017.0
20260506071013 50 0 0.0 0.0 0.00 0.00 0.00 86 1017.0
20260506070510 50 0 0.0 0.0 0.00 0.00 0.00 86 1017.0
20260506062511 51 0 0.0 2.0 0.00 0.00 0.00 85 1016.6
20260506062013 51 0 0.0 2.0 0.00 0.00 0.00 85 1016.6
20260506061545 51 0 0.0 0.0 0.00 0.00 0.00 85 1016.6
20260506061015 51 0 0.0 0.0 0.00 0.00 0.00 84 1016.6
20260506060514 52 0 0.0 0.0 0.00 0.00 0.00 84 1016.6
20260506051014 53 0 0.0 0.0 0.00 0.00 0.00 83 1016.3
20260506050520 53 0 0.0 0.0 0.00 0.00 0.00 82 1016.2
20260506045014 54 0 0.0 0.0 0.00 0.00 0.00 82 1016.3
20260506044544 54 0 0.0 0.0 0.00 0.00 0.00 81 1016.2
20260506044013 55 0 0.0 0.0 0.00 0.00 0.00 81 1016.3
20260506043511 55 0 0.0 0.0 0.00 0.00 0.00 80 1016.2
20260506043039 55 0 0.0 0.0 0.00 0.00 0.00 80 1016.1
20260506042514 55 0 0.0 0.0 0.00 0.00 0.00 80 1016.2
20260506042015 56 0 0.0 0.0 0.00 0.00 0.00 79 1016.1
20260506041534 56 0 0.0 0.0 0.00 0.00 0.00 79 1016.0
20260506041014 56 0 0.0 0.0 0.00 0.00 0.00 79 1016.0
20260506040603 56 0 0.0 0.0 0.00 0.00 0.00 79 1016.0
20260506040512 56 0 0.0 0.0 0.00 0.00 0.00 79 1016.0
20260506040033 57 0 0.0 0.0 0.00 0.00 0.00 78 1016.0
20260506035514 57 0 0.0 0.0 0.00 0.00 0.00 78 1015.9
20260506035016 57 0 0.0 0.0 0.00 0.00 0.00 77 1015.8
20260506034532 57 0 0.0 0.0 0.00 0.00 0.00 77 1015.7
20260506034014 58 0 0.0 0.0 0.00 0.00 0.00 77 1015.7
20260506033512 58 0 0.0 0.0 0.00 0.00 0.00 76 1015.7
20260506033038 58 0 0.0 0.0 0.00 0.00 0.00 76 1015.6
20260506032514 59 0 0.0 0.0 0.00 0.00 0.00 76 1015.5
20260506032012 59 0 0.0 0.0 0.00 0.00 0.00 75 1015.5
20260506031543 59 0 0.0 0.0 0.00 0.00 0.00 75 1015.5
20260506031014 60 0 0.0 2.0 0.00 0.00 0.00 74 1015.5
20260506030514 60 0 0.0 2.0 0.00 0.00 0.00 74 1015.4
20260506030032 60 236 0.0 2.0 0.00 0.00 0.00 73 1015.4
20260506025516 60 0 0.0 2.0 0.00 0.00 0.00 73 1015.4
20260506025014 61 229 0.0 3.0 0.00 0.00 0.00 73 1015.5
20260506024542 61 0 0.0 3.0 0.00 0.00 0.00 73 1015.4
20260506024014 61 196 0.0 2.0 0.00 0.00 0.00 72 1015.4
20260506023513 62 0 0.0 2.0 0.00 0.00 0.00 72 1015.4
20260506023033 62 223 0.0 2.0 0.00 0.00 0.00 71 1015.4
20260506022516 62 0 0.0 2.0 0.00 0.00 0.00 71 1015.4
20260506022012 62 0 0.0 0.0 0.00 0.00 0.00 71 1015.4
20260506021532 63 0 0.0 0.0 0.00 0.00 0.00 70 1015.4
20260506021017 63 0 0.0 2.0 0.00 0.00 0.00 70 1015.4
20260506020513 63 0 0.0 2.0 0.00 0.00 0.00 70 1015.3
20260506020032 64 0 0.0 4.0 0.00 0.00 0.00 70 1015.2
20260506015515 64 209 0.0 4.0 0.00 0.00 0.00 69 1015.3
20260506015016 64 234 1.0 4.0 0.00 0.00 0.00 69 1015.4
20260506014532 64 0 1.0 4.0 0.00 0.00 0.00 68 1015.3
20260506014017 65 237 1.0 4.0 0.00 0.00 0.00 67 1015.3
20260506013513 65 251 0.0 5.0 0.00 0.00 0.00 67 1015.2
20260506013034 66 60 1.0 5.0 0.00 0.00 0.00 67 1015.2
20260506012514 66 0 0.0 2.0 0.00 0.00 0.00 68 1015.2
20260506012018 66 229 0.0 3.0 0.00 0.00 0.00 68 1015.2
20260506011537 66 219 1.0 6.0 0.00 0.00 0.00 67 1015.2
20260506011015 66 221 0.0 6.0 0.00 0.00 0.00 68 1015.2
20260506010513 66 215 2.0 6.0 0.00 0.00 0.00 67 1015.2
20260506010057 65 0 0.0 6.0 0.00 0.00 0.00 68 1015.1
20260506005515 65 306 3.0 10.0 0.00 0.00 0.00 67 1015.1
20260506005013 65 256 3.0 9.0 0.00 0.00 0.00 67 1015.3
20260506004531 66 236 0.0 6.0 0.00 0.00 0.00 68 1015.4